EXPRESS 80

Last updated on Sat Jul 05 2025 00:02:47 GMT+0000 (Coordinated Universal Time)

1 45986U 20053B 25184.99380528 -.00000123 00000+0 00000+0 0 9991 2 45986 0.0179 354.8186 0001621 211.2839 153.8893 1.00270526 18146
UTC large
Height (km)
Speed (km/s)
/
Latitude / Longitude
Inclination (degrees)
Orbital Period (minutes)
Azimuth
Elevation
Range (km)
Doppler Factor

Next 0 passes for location: London (51.5072 / 0.1276)

Sorry there are no passes over London.